Location: Casteau
(50.5142°N, 4.0161°E)
Time: 23:39:31
(UTC+00:00)

S-56A Canister/Altair - Pass Details

Date: 01 August 2021
Orbit: 632 x 2500 km, 38.9° (Epoch: 19 September)

Event Time Altitude Azimuth Distance (km) Brightness Sun altitude
Rises 13:02:44 0° 202° (SSW) 5,280 12.4 54.3°
Reaches altitude 10° 13:06:39 10° 191° (S) 4,536 12.2 54.0°
Maximum altitude 13:16:48 28° 140° (SE) 3,746 11.5 53.1°
Drops below altitude 10° 13:28:12 10° 91° (E) 5,167 11.6 52.0°
Sets 13:33:01 0° 81° (E) 6,131 11.8 51.5°
